| time (UTC) | temp C | wind direction | speed KPH | gust KPH | rain 1hr cm | rain 24hr cm | rain mn cm | humidity % | barometer mb |
| 20260906130754 | 21 | 209 | 3.2 | 12.9 | 0.00 | 0.00 | 0.00 | 84 | 1018.7 |
| 20260906130254 | 21 | 121 | 1.6 | 6.4 | 0.00 | 0.00 | 0.00 | 84 | 1018.7 |
| 20260906125737 | 21 | 163 | 1.6 | 4.8 | 0.00 | 0.00 | 0.00 | 85 | 1018.7 |
| 20260906125236 | 21 | 130 | 0.0 | 3.2 | 0.00 | 0.00 | 0.00 | 86 | 1018.7 |
| 20260906124733 | 20 | 150 | 0.0 | 6.4 | 0.00 | 0.00 | 0.00 | 86 | 1018.7 |
| 20260906124246 | 20 | 186 | 0.0 | 6.4 | 0.00 | 0.00 | 0.00 | 87 | 1018.6 |
| 20260906123742 | 20 | 116 | 0.0 | 6.4 | 0.00 | 0.00 | 0.00 | 88 | 1018.5 |
| 20260906123229 | 20 | 113 | 0.0 | 6.4 | 0.00 | 0.00 | 0.00 | 89 | 1018.7 |
| 20260906122727 | 20 | 118 | 0.0 | 0.0 | 0.00 | 0.00 | 0.00 | 89 | 1018.7 |
| 20260906122713 | 19 | 105 | 0.0 | 0.0 | 0.00 | 0.00 | 0.00 | 89 | 1018.8 |
| 20260906121940 | 19 | 105 | 0.0 | 0.0 | 0.00 | 0.00 | 0.00 | 90 | 1018.6 |
| 20260906121222 | 19 | 102 | 0.0 | 0.0 | 0.00 | 0.00 | 0.00 | 90 | 1018.5 |
| 20260906120726 | 19 | 103 | 0.0 | 0.0 | 0.00 | 0.00 | 0.00 | 90 | 1018.3 |
| 20260906120445 | 19 | 103 | 0.0 | 0.0 | 0.00 | 0.00 | 0.00 | 90 | 1018.1 |
| 20260906115940 | 19 | 103 | 0.0 | 0.0 | 0.00 | 0.00 | 0.00 | 90 | 1018.1 |
| 20260906115446 | 18 | 105 | 0.0 | 0.0 | 0.00 | 0.00 | 0.00 | 90 | 1018.1 |
| 20260906114715 | 18 | 106 | 0.0 | 0.0 | 0.00 | 0.00 | 0.00 | 90 | 1018.0 |
| 20260906114212 | 18 | 101 | 0.0 | 0.0 | 0.00 | 0.00 | 0.00 | 90 | 1017.8 |
| 20260906113703 | 18 | 101 | 0.0 | 0.0 | 0.00 | 0.00 | 0.00 | 90 | 1017.8 |
| 20260906113204 | 18 | 99 | 0.0 | 0.0 | 0.00 | 0.00 | 0.00 | 90 | 1017.8 |
| 20260906112929 | 18 | 103 | 0.0 | 0.0 | 0.00 | 0.00 | 0.00 | 90 | 1017.7 |
| 20260906112206 | 18 | 111 | 0.0 | 0.0 | 0.00 | 0.00 | 0.00 | 90 | 1017.5 |
| 20260906111705 | 18 | 112 | 0.0 | 0.0 | 0.00 | 0.00 | 0.00 | 90 | 1017.5 |
| 20260906111206 | 18 | 110 | 0.0 | 0.0 | 0.00 | 0.00 | 0.00 | 90 | 1017.5 |
| 20260906110941 | 18 | 105 | 0.0 | 0.0 | 0.00 | 0.00 | 0.00 | 90 | 1017.4 |
| 20260906110205 | 18 | 103 | 0.0 | 3.2 | 0.00 | 0.00 | 0.00 | 90 | 1017.4 |
| 20260906105930 | 18 | 106 | 0.0 | 3.2 | 0.00 | 0.00 | 0.00 | 90 | 1017.5 |
| 20260906105203 | 18 | 95 | 0.0 | 3.2 | 0.00 | 0.00 | 0.00 | 90 | 1017.5 |
| 20260906104700 | 18 | 95 | 1.6 | 3.2 | 0.00 | 0.00 | 0.00 | 90 | 1017.3 |
| 20260906104424 | 18 | 104 | 1.6 | 3.2 | 0.00 | 0.00 | 0.00 | 90 | 1017.2 |
| 20260906103702 | 18 | 104 | 1.6 | 3.2 | 0.00 | 0.00 | 0.00 | 90 | 1017.3 |
| 20260906103200 | 19 | 102 | 0.0 | 1.6 | 0.00 | 0.00 | 0.00 | 90 | 1017.1 |
| 20260906102700 | 19 | 103 | 0.0 | 1.6 | 0.00 | 0.00 | 0.00 | 89 | 1017.1 |
| 20260906102423 | 19 | 103 | 0.0 | 0.0 | 0.00 | 0.00 | 0.00 | 89 | 1017.0 |
| 20260906101659 | 19 | 103 | 0.0 | 0.0 | 0.00 | 0.00 | 0.00 | 89 | 1017.1 |
| 20260906101202 | 19 | 101 | 0.0 | 0.0 | 0.00 | 0.00 | 0.00 | 89 | 1017.1 |
| 20260906100702 | 19 | 126 | 0.0 | 0.0 | 0.00 | 0.00 | 0.00 | 89 | 1017.1 |
| 20260906100202 | 19 | 101 | 0.0 | 0.0 | 0.00 | 0.00 | 0.00 | 89 | 1017.0 |
| 20260906095700 | 19 | 98 | 0.0 | 0.0 | 0.00 | 0.00 | 0.00 | 89 | 1017.0 |
| 20260906095203 | 19 | 105 | 0.0 | 0.0 | 0.00 | 0.00 | 0.00 | 89 | 1017.0 |
| 20260906094703 | 19 | 95 | 0.0 | 0.0 | 0.00 | 0.00 | 0.00 | 89 | 1016.8 |
| 20260906094202 | 19 | 96 | 0.0 | 0.0 | 0.00 | 0.00 | 0.00 | 89 | 1016.8 |
| 20260906093700 | 19 | 104 | 0.0 | 0.0 | 0.00 | 0.00 | 0.00 | 89 | 1016.8 |
| 20260906093201 | 19 | 103 | 0.0 | 0.0 | 0.00 | 0.00 | 0.00 | 89 | 1016.9 |
| 20260906092703 | 19 | 107 | 0.0 | 0.0 | 0.00 | 0.00 | 0.00 | 89 | 1016.9 |
| 20260906092202 | 19 | 114 | 0.0 | 0.0 | 0.00 | 0.00 | 0.00 | 89 | 1016.9 |
| 20260906091701 | 19 | 106 | 0.0 | 0.0 | 0.00 | 0.00 | 0.00 | 89 | 1016.8 |
| 20260906091428 | 19 | 105 | 0.0 | 0.0 | 0.00 | 0.00 | 0.00 | 89 | 1016.8 |
| 20260906090701 | 19 | 105 | 0.0 | 0.0 | 0.00 | 0.00 | 0.00 | 89 | 1016.8 |
| 20260906090202 | 19 | 103 | 0.0 | 0.0 | 0.00 | 0.00 | 0.00 | 89 | 1016.8 |
| 20260906085921 | 19 | 103 | 0.0 | 0.0 | 0.00 | 0.00 | 0.00 | 89 | 1016.8 |
| 20260906085201 | 20 | 103 | 0.0 | 0.0 | 0.00 | 0.00 | 0.00 | 89 | 1016.8 |
| 20260906084657 | 20 | 103 | 0.0 | 0.0 | 0.00 | 0.00 | 0.00 | 88 | 1016.7 |
| 20260906084155 | 20 | 103 | 0.0 | 0.0 | 0.00 | 0.00 | 0.00 | 88 | 1016.7 |
| 20260906083655 | 20 | 104 | 0.0 | 0.0 | 0.00 | 0.00 | 0.00 | 88 | 1016.6 |
| 20260906083155 | 20 | 103 | 0.0 | 0.0 | 0.00 | 0.00 | 0.00 | 88 | 1016.7 |
| 20260906082656 | 20 | 106 | 0.0 | 0.0 | 0.00 | 0.00 | 0.00 | 88 | 1016.7 |
| 20260906082153 | 20 | 105 | 0.0 | 0.0 | 0.00 | 0.00 | 0.00 | 88 | 1016.7 |
| 20260906081653 | 20 | 109 | 0.0 | 0.0 | 0.00 | 0.00 | 0.00 | 88 | 1016.8 |
| 20260906081153 | 20 | 110 | 0.0 | 0.0 | 0.00 | 0.00 | 0.00 | 88 | 1016.9 |
| 20260906080655 | 20 | 110 | 0.0 | 0.0 | 0.00 | 0.00 | 0.00 | 88 | 1016.9 |
| 20260906080214 | 20 | 110 | 0.0 | 0.0 | 0.00 | 0.00 | 0.00 | 88 | 1016.9 |
| 20260906075909 | 20 | 114 | 0.0 | 0.0 | 0.00 | 0.00 | 0.00 | 88 | 1016.9 |
| 20260906075147 | 20 | 113 | 0.0 | 0.0 | 0.00 | 0.00 | 0.00 | 88 | 1017.0 |
| 20260906074647 | 20 | 113 | 0.0 | 0.0 | 0.00 | 0.00 | 0.00 | 87 | 1017.0 |
| 20260906074144 | 20 | 113 | 0.0 | 0.0 | 0.00 | 0.00 | 0.00 | 87 | 1017.0 |
| 20260906073644 | 20 | 113 | 0.0 | 0.0 | 0.00 | 0.00 | 0.00 | 87 | 1016.9 |
| 20260906073142 | 20 | 113 | 0.0 | 0.0 | 0.00 | 0.00 | 0.00 | 87 | 1016.8 |
| 20260906072644 | 20 | 112 | 0.0 | 0.0 | 0.00 | 0.00 | 0.00 | 87 | 1016.9 |
| 20260906072141 | 20 | 112 | 0.0 | 0.0 | 0.00 | 0.00 | 0.00 | 86 | 1017.0 |
| 20260906071641 | 20 | 112 | 0.0 | 0.0 | 0.00 | 0.00 | 0.00 | 86 | 1016.9 |
| 20260906071136 | 20 | 112 | 0.0 | 0.0 | 0.00 | 0.00 | 0.00 | 86 | 1017.0 |
| 20260906070636 | 20 | 169 | 0.0 | 0.0 | 0.00 | 0.00 | 0.00 | 86 | 1017.1 |
| 20260906070137 | 20 | 91 | 0.0 | 0.0 | 0.00 | 0.00 | 0.00 | 86 | 1017.1 |
| 20260906065628 | 20 | 111 | 0.0 | 0.0 | 0.00 | 0.00 | 0.00 | 86 | 1017.1 |
| 20260906065127 | 20 | 111 | 0.0 | 0.0 | 0.00 | 0.00 | 0.00 | 86 | 1017.1 |
| 20260906064626 | 20 | 111 | 0.0 | 0.0 | 0.00 | 0.00 | 0.00 | 85 | 1017.2 |
| 20260906064354 | 20 | 108 | 0.0 | 0.0 | 0.00 | 0.00 | 0.00 | 85 | 1017.1 |
| 20260906063632 | 20 | 108 | 0.0 | 0.0 | 0.00 | 0.00 | 0.00 | 85 | 1017.0 |
| 20260906063128 | 20 | 108 | 0.0 | 0.0 | 0.00 | 0.00 | 0.00 | 85 | 1017.0 |
| 20260906062629 | 20 | 108 | 0.0 | 0.0 | 0.00 | 0.00 | 0.00 | 85 | 1017.0 |
| 20260906062128 | 21 | 105 | 0.0 | 0.0 | 0.00 | 0.00 | 0.00 | 85 | 1017.1 |
| 20260906061641 | 21 | 105 | 0.0 | 0.0 | 0.00 | 0.00 | 0.00 | 85 | 1017.1 |
| 20260906061126 | 21 | 105 | 0.0 | 0.0 | 0.00 | 0.00 | 0.00 | 85 | 1017.1 |
| 20260906060847 | 21 | 144 | 0.0 | 0.0 | 0.00 | 0.00 | 0.00 | 85 | 1017.1 |
| 20260906060127 | 21 | 96 | 0.0 | 0.0 | 0.00 | 0.00 | 0.00 | 85 | 1017.0 |
| 20260906055623 | 21 | 110 | 0.0 | 0.0 | 0.00 | 0.00 | 0.00 | 85 | 1017.0 |
| 20260906055122 | 21 | 107 | 0.0 | 0.0 | 0.00 | 0.00 | 0.00 | 85 | 1016.9 |
| 20260906054620 | 21 | 126 | 0.0 | 0.0 | 0.00 | 0.00 | 0.00 | 84 | 1016.8 |
| 20260906054122 | 21 | 138 | 0.0 | 3.2 | 0.00 | 0.00 | 0.00 | 84 | 1016.8 |
| 20260906053622 | 21 | 134 | 0.0 | 3.2 | 0.00 | 0.00 | 0.00 | 84 | 1016.8 |
| 20260906053119 | 21 | 108 | 0.0 | 3.2 | 0.00 | 0.00 | 0.00 | 84 | 1016.8 |
| 20260906053104 | 21 | 108 | 0.0 | 3.2 | 0.00 | 0.00 | 0.00 | 84 | 1016.9 |
| 20260906052117 | 21 | 113 | 0.0 | 4.8 | 0.00 | 0.00 | 0.00 | 84 | 1016.9 |
| 20260906051617 | 21 | 104 | 0.0 | 4.8 | 0.00 | 0.00 | 0.00 | 84 | 1016.8 |
| 20260906051346 | 21 | 103 | 0.0 | 4.8 | 0.00 | 0.00 | 0.00 | 84 | 1016.7 |
| 20260906050616 | 21 | 118 | 0.0 | 4.8 | 0.00 | 0.00 | 0.00 | 83 | 1016.6 |
| 20260906050127 | 21 | 110 | 0.0 | 3.2 | 0.00 | 0.00 | 0.00 | 83 | 1016.5 |
| 20260906045619 | 21 | 109 | 0.0 | 3.2 | 0.00 | 0.00 | 0.00 | 83 | 1016.5 |
| 20260906045111 | 21 | 113 | 0.0 | 3.2 | 0.00 | 0.00 | 0.00 | 83 | 1016.6 |
| 20260906044607 | 21 | 104 | 1.6 | 3.2 | 0.00 | 0.00 | 0.00 | 83 | 1016.7 |
| 20260906044059 | 21 | 105 | 0.0 | 8.0 | 0.00 | 0.00 | 0.00 | 82 | 1016.6 |
| 20260906043553 | 21 | 103 | 0.0 | 8.0 | 0.00 | 0.00 | 0.00 | 82 | 1016.4 |
| 20260906043048 | 21 | 103 | 1.6 | 8.0 | 0.00 | 0.00 | 0.00 | 82 | 1016.4 |
| 20260906042542 | 21 | 110 | 0.0 | 8.0 | 0.00 | 0.00 | 0.00 | 81 | 1016.3 |
| 20260906042043 | 22 | 136 | 0.0 | 3.2 | 0.00 | 0.00 | 0.00 | 81 | 1016.3 |
| 20260906042036 | 22 | 136 | 0.0 | 3.2 | 0.00 | 0.00 | 0.00 | 80 | 1016.2 |
| 20260906041036 | 22 | 136 | 1.6 | 8.0 | 0.00 | 0.00 | 0.00 | 80 | 1016.1 |
| 20260906040536 | 22 | 197 | 1.6 | 8.0 | 0.00 | 0.00 | 0.00 | 80 | 1016.0 |
| 20260906040036 | 22 | 103 | 1.6 | 9.7 | 0.00 | 0.00 | 0.00 | 80 | 1015.9 |
| 20260906035537 | 22 | 215 | 3.2 | 9.7 | 0.00 | 0.00 | 0.00 | 80 | 1015.8 |
| 20260906035051 | 22 | 129 | 1.6 | 9.7 | 0.00 | 0.00 | 0.00 | 79 | 1015.8 |
| 20260906034538 | 22 | 158 | 3.2 | 11.3 | 0.00 | 0.00 | 0.00 | 79 | 1015.8 |
| 20260906034034 | 22 | 107 | 3.2 | 11.3 | 0.00 | 0.00 | 0.00 | 79 | 1015.8 |
| 20260906033536 | 22 | 134 | 3.2 | 11.3 | 0.00 | 0.00 | 0.00 | 79 | 1015.8 |
| 20260906033036 | 22 | 212 | 3.2 | 11.3 | 0.00 | 0.00 | 0.00 | 79 | 1015.9 |
| 20260906032534 | 22 | 120 | 4.8 | 12.9 | 0.00 | 0.00 | 0.00 | 79 | 1015.9 |
| 20260906032035 | 22 | 162 | 3.2 | 12.9 | 0.00 | 0.00 | 0.00 | 78 | 1015.8 |
| 20260906031534 | 22 | 167 | 1.6 | 11.3 | 0.00 | 0.00 | 0.00 | 78 | 1015.7 |
| 20260906031031 | 22 | 163 | 3.2 | 19.3 | 0.00 | 0.00 | 0.00 | 79 | 1015.8 |
| 20260906030529 | 22 | 162 | 3.2 | 19.3 | 0.00 | 0.00 | 0.00 | 78 | 1015.7 |
| 20260906030030 | 22 | 109 | 4.8 | 19.3 | 0.00 | 0.00 | 0.00 | 79 | 1015.7 |
| 20260906025529 | 22 | 141 | 4.8 | 19.3 | 0.00 | 0.00 | 0.00 | 78 | 1015.7 |
| 20260906025029 | 22 | 129 | 3.2 | 16.1 | 0.00 | 0.00 | 0.00 | 79 | 1015.7 |
| 20260906024542 | 22 | 101 | 3.2 | 12.9 | 0.00 | 0.00 | 0.00 | 78 | 1015.7 |
| 20260906024028 | 22 | 181 | 3.2 | 16.1 | 0.00 | 0.00 | 0.00 | 78 | 1015.8 |
| 20260906023527 | 22 | 170 | 4.8 | 16.1 | 0.00 | 0.00 | 0.00 | 78 | 1015.7 |
| 20260906023022 | 22 | 127 | 4.8 | 16.1 | 0.00 | 0.00 | 0.00 | 78 | 1015.7 |
| 20260906022523 | 22 | 173 | 4.8 | 16.1 | 0.00 | 0.00 | 0.00 | 78 | 1015.7 |
| 20260906022023 | 22 | 235 | 3.2 | 12.9 | 0.00 | 0.00 | 0.00 | 78 | 1015.7 |
| 20260906021526 | 22 | 210 | 3.2 | 9.7 | 0.00 | 0.00 | 0.00 | 78 | 1015.6 |
| 20260906021019 | 22 | 98 | 3.2 | 14.5 | 0.00 | 0.00 | 0.00 | 78 | 1015.6 |
| 20260906020521 | 22 | 140 | 3.2 | 14.5 | 0.00 | 0.00 | 0.00 | 78 | 1015.7 |
| 20260906020022 | 22 | 223 | 4.8 | 14.5 | 0.00 | 0.00 | 0.00 | 78 | 1015.7 |
| 20260906015523 | 22 | 103 | 4.8 | 14.5 | 0.00 | 0.00 | 0.00 | 78 | 1015.6 |
| 20260906015018 | 22 | 129 | 3.2 | 11.3 | 0.00 | 0.00 | 0.00 | 78 | 1015.6 |
| 20260906014512 | 22 | 156 | 3.2 | 9.7 | 0.00 | 0.00 | 0.00 | 78 | 1015.6 |
| 20260906014456 | 22 | 138 | 3.2 | 17.7 | 0.00 | 0.00 | 0.00 | 78 | 1015.6 |
| 20260906013504 | 22 | 126 | 3.2 | 17.7 | 0.00 | 0.00 | 0.00 | 78 | 1015.7 |
| 20260906013001 | 22 | 149 | 3.2 | 17.7 | 0.00 | 0.00 | 0.00 | 78 | 1015.6 |
| 20260906012500 | 22 | 217 | 3.2 | 17.7 | 0.00 | 0.00 | 0.00 | 78 | 1015.7 |
| 20260906011959 | 22 | 110 | 3.2 | 6.4 | 0.00 | 0.00 | 0.00 | 78 | 1015.7 |
| 20260906011722 | 22 | 162 | 1.6 | 11.3 | 0.00 | 0.00 | 0.00 | 78 | 1015.6 |
| 20260906010958 | 22 | 56 | 1.6 | 11.3 | 0.00 | 0.00 | 0.00 | 79 | 1015.7 |
| 20260906010501 | 22 | 113 | 3.2 | 19.3 | 0.00 | 0.00 | 0.00 | 79 | 1015.7 |
| 20260906010231 | 22 | 130 | 3.2 | 19.3 | 0.00 | 0.00 | 0.00 | 78 | 1015.8 |
| 20260906005457 | 22 | 143 | 4.8 | 19.3 | 0.00 | 0.00 | 0.00 | 78 | 1015.7 |
| 20260906004956 | 22 | 139 | 4.8 | 19.3 | 0.00 | 0.00 | 0.00 | 78 | 1015.6 |
| 20260906004455 | 23 | 110 | 4.8 | 12.9 | 0.00 | 0.00 | 0.00 | 78 | 1015.5 |
| 20260906003955 | 23 | 129 | 4.8 | 12.9 | 0.00 | 0.00 | 0.00 | 77 | 1015.5 |
| 20260906003453 | 23 | 171 | 3.2 | 12.9 | 0.00 | 0.00 | 0.00 | 77 | 1015.5 |
| 20260906002956 | 23 | 133 | 3.2 | 11.3 | 0.00 | 0.00 | 0.00 | 77 | 1015.4 |
| 20260906002459 | 23 | 73 | 3.2 | 11.3 | 0.00 | 0.00 | 0.00 | 76 | 1015.3 |
| 20260906002006 | 23 | 138 | 3.2 | 11.3 | 0.00 | 0.00 | 0.00 | 76 | 1015.2 |
| 20260906001444 | 24 | 107 | 3.2 | 14.5 | 0.00 | 0.00 | 0.00 | 76 | 1015.2 |
| 20260906001209 | 24 | 148 | 3.2 | 16.1 | 0.00 | 0.00 | 0.00 | 76 | 1015.1 |
| 20260906000433 | 24 | 131 | 3.2 | 16.1 | 0.00 | 0.00 | 0.00 | 75 | 1015.0 |
| 20260905235924 | 24 | 165 | 4.8 | 20.9 | 0.00 | 0.00 | 0.00 | 75 | 1014.9 |
| 20260905235412 | 25 | 135 | 4.8 | 20.9 | 0.00 | 0.00 | 0.00 | 74 | 1014.7 |
| 20260905234907 | 25 | 186 | 4.8 | 20.9 | 0.00 | 0.00 | 0.00 | 74 | 1014.6 |
| 20260905234400 | 25 | 120 | 4.8 | 20.9 | 0.00 | 0.00 | 0.00 | 73 | 1014.6 |
| 20260905233901 | 25 | 165 | 4.8 | 16.1 | 0.00 | 0.00 | 0.00 | 73 | 1014.6 |
| 20260905233416 | 26 | 123 | 4.8 | 16.1 | 0.00 | 0.00 | 0.00 | 72 | 1014.6 |
| 20260905232901 | 26 | 134 | 3.2 | 11.3 | 0.00 | 0.00 | 0.00 | 72 | 1014.7 |
| 20260905232402 | 26 | 129 | 1.6 | 8.0 | 0.00 | 0.00 | 0.00 | 71 | 1014.6 |
| 20260905231857 | 26 | 116 | 3.2 | 9.7 | 0.00 | 0.00 | 0.00 | 71 | 1014.6 |
| 20260905231402 | 26 | 124 | 1.6 | 12.9 | 0.00 | 0.00 | 0.00 | 71 | 1014.5 |
| 20260905230900 | 26 | 156 | 1.6 | 12.9 | 0.00 | 0.00 | 0.00 | 71 | 1014.5 |
| 20260905230357 | 26 | 240 | 3.2 | 12.9 | 0.00 | 0.00 | 0.00 | 70 | 1014.5 |
| 20260905225857 | 27 | 141 | 4.8 | 14.5 | 0.00 | 0.00 | 0.00 | 69 | 1014.3 |
| 20260905225356 | 27 | 154 | 4.8 | 14.5 | 0.00 | 0.00 | 0.00 | 67 | 1014.2 |
| 20260905224853 | 27 | 121 | 3.2 | 11.3 | 0.00 | 0.00 | 0.00 | 65 | 1014.0 |
| 20260905224622 | 28 | 105 | 3.2 | 11.3 | 0.00 | 0.00 | 0.00 | 65 | 1013.9 |
| 20260905223851 | 28 | 98 | 3.2 | 8.0 | 0.00 | 0.00 | 0.00 | 65 | 1014.0 |
| 20260905223350 | 28 | 112 | 3.2 | 12.9 | 0.00 | 0.00 | 0.00 | 64 | 1013.9 |
| 20260905222853 | 28 | 109 | 3.2 | 12.9 | 0.00 | 0.00 | 0.00 | 63 | 1013.9 |
| 20260905222342 | 28 | 75 | 4.8 | 12.9 | 0.00 | 0.00 | 0.00 | 64 | 1013.8 |
| 20260905221837 | 28 | 133 | 4.8 | 12.9 | 0.00 | 0.00 | 0.00 | 63 | 1013.9 |
| 20260905221332 | 28 | 168 | 4.8 | 11.3 | 0.00 | 0.00 | 0.00 | 63 | 1013.8 |
| 20260905221049 | 28 | 141 | 3.2 | 9.7 | 0.00 | 0.00 | 0.00 | 63 | 1013.8 |
| 20260905220330 | 28 | 100 | 3.2 | 4.8 | 0.00 | 0.00 | 0.00 | 64 | 1013.7 |
| 20260905215829 | 28 | 94 | 3.2 | 6.4 | 0.00 | 0.00 | 0.00 | 64 | 1013.7 |
| 20260905215327 | 28 | 91 | 3.2 | 11.3 | 0.00 | 0.00 | 0.00 | 64 | 1013.9 |
| 20260905214828 | 28 | 96 | 3.2 | 11.3 | 0.00 | 0.00 | 0.00 | 64 | 1014.0 |
| 20260905214327 | 28 | 125 | 4.8 | 11.3 | 0.00 | 0.00 | 0.00 | 62 | 1014.1 |
| 20260905213822 | 29 | 83 | 3.2 | 11.3 | 0.00 | 0.00 | 0.00 | 62 | 1014.1 |
| 20260905213321 | 29 | 298 | 3.2 | 6.4 | 0.00 | 0.00 | 0.00 | 64 | 1014.0 |
| 20260905212820 | 29 | 90 | 3.2 | 6.4 | 0.00 | 0.00 | 0.00 | 63 | 1014.0 |
| 20260905212321 | 29 | 59 | 1.6 | 6.4 | 0.00 | 0.00 | 0.00 | 63 | 1014.0 |
| 20260905212055 | 29 | 113 | 1.6 | 6.4 | 0.00 | 0.00 | 0.00 | 63 | 1014.0 |
| 20260905211322 | 29 | 106 | 3.2 | 6.4 | 0.00 | 0.00 | 0.00 | 64 | 1014.1 |
| 20260905210822 | 29 | 139 | 1.6 | 6.4 | 0.00 | 0.00 | 0.00 | 65 | 1014.1 |
| 20260905210319 | 29 | 79 | 1.6 | 4.8 | 0.00 | 0.00 | 0.00 | 65 | 1014.1 |
| 20260905205818 | 29 | 160 | 0.0 | 4.8 | 0.00 | 0.00 | 0.00 | 64 | 1014.1 |
| 20260905205543 | 29 | 130 | 0.0 | 4.8 | 0.00 | 0.00 | 0.00 | 65 | 1014.3 |
| 20260905204815 | 28 | 155 | 1.6 | 4.8 | 0.00 | 0.00 | 0.00 | 67 | 1014.5 |
| 20260905204316 | 28 | 87 | 1.6 | 4.8 | 0.00 | 0.00 | 0.00 | 67 | 1014.5 |
| 20260905203815 | 28 | 89 | 1.6 | 4.8 | 0.00 | 0.00 | 0.00 | 68 | 1014.5 |
| 20260905203317 | 27 | 75 | 1.6 | 4.8 | 0.00 | 0.00 | 0.00 | 68 | 1014.6 |
| 20260905202811 | 27 | 106 | 1.6 | 4.8 | 0.00 | 0.00 | 0.00 | 70 | 1014.6 |
| 20260905202310 | 27 | 84 | 1.6 | 6.4 | 0.00 | 0.00 | 0.00 | 70 | 1014.6 |
| 20260905201809 | 27 | 80 | 1.6 | 6.4 | 0.00 | 0.00 | 0.00 | 69 | 1014.7 |
| 20260905201310 | 27 | 184 | 3.2 | 6.4 | 0.00 | 0.00 | 0.00 | 69 | 1014.7 |
| 20260905201030 | 27 | 121 | 3.2 | 8.0 | 0.00 | 0.00 | 0.00 | 68 | 1014.6 |
| 20260905200308 | 28 | 108 | 3.2 | 8.0 | 0.00 | 0.00 | 0.00 | 68 | 1014.6 |
| 20260905195812 | 28 | 192 | 3.2 | 11.3 | 0.00 | 0.00 | 0.00 | 67 | 1014.6 |
| 20260905195530 | 28 | 124 | 3.2 | 11.3 | 0.00 | 0.00 | 0.00 | 67 | 1014.6 |
| 20260905194810 | 28 | 115 | 4.8 | 11.3 | 0.00 | 0.00 | 0.00 | 65 | 1014.6 |
| 20260905194314 | 29 | 108 | 4.8 | 14.5 | 0.00 | 0.00 | 0.00 | 66 | 1014.6 |
| 20260905193809 | 28 | 98 | 4.8 | 14.5 | 0.00 | 0.00 | 0.00 | 66 | 1014.5 |
| 20260905193309 | 29 | 116 | 4.8 | 14.5 | 0.00 | 0.00 | 0.00 | 65 | 1014.3 |
| 20260905192808 | 30 | 172 | 4.8 | 12.9 | 0.00 | 0.00 | 0.00 | 64 | 1014.5 |
| 20260905192311 | 30 | 138 | 4.8 | 9.7 | 0.00 | 0.00 | 0.00 | 65 | 1014.3 |
| 20260905191809 | 30 | 102 | 4.8 | 9.7 | 0.00 | 0.00 | 0.00 | 64 | 1014.3 |
| 20260905191534 | 30 | 124 | 3.2 | 9.7 | 0.00 | 0.00 | 0.00 | 64 | 1014.5 |
| 20260905190812 | 30 | 166 | 3.2 | 8.0 | 0.00 | 0.00 | 0.00 | 63 | 1014.5 |
| 20260905190321 | 30 | 170 | 3.2 | 8.0 | 0.00 | 0.00 | 0.00 | 63 | 1014.5 |
| 20260905185809 | 30 | 68 | 3.2 | 9.7 | 0.00 | 0.00 | 0.00 | 64 | 1014.5 |
| 20260905185308 | 30 | 94 | 3.2 | 9.7 | 0.00 | 0.00 | 0.00 | 65 | 1014.5 |
| 20260905184811 | 30 | 144 | 4.8 | 9.7 | 0.00 | 0.00 | 0.00 | 66 | 1014.5 |
| 20260905184310 | 30 | 94 | 4.8 | 9.7 | 0.00 | 0.00 | 0.00 | 66 | 1014.5 |
| 20260905183810 | 30 | 85 | 3.2 | 8.0 | 0.00 | 0.00 | 0.00 | 66 | 1014.5 |
| 20260905183308 | 30 | 121 | 3.2 | 8.0 | 0.00 | 0.00 | 0.00 | 66 | 1014.7 |
| 20260905183257 | 30 | 143 | 3.2 | 8.0 | 0.00 | 0.00 | 0.00 | 65 | 1014.6 |
| 20260905182539 | 30 | 46 | 3.2 | 6.4 | 0.00 | 0.00 | 0.00 | 65 | 1014.6 |
| 20260905181807 | 30 | 113 | 3.2 | 12.9 | 0.00 | 0.00 | 0.00 | 66 | 1014.6 |
| 20260905181308 | 30 | 162 | 3.2 | 12.9 | 0.00 | 0.00 | 0.00 | 66 | 1014.6 |
| 20260905180807 | 30 | 96 | 3.2 | 12.9 | 0.00 | 0.00 | 0.00 | 65 | 1014.5 |
| 20260905180319 | 30 | 198 | 3.2 | 12.9 | 0.00 | 0.00 | 0.00 | 66 | 1014.5 |
| 20260905175806 | 30 | 212 | 3.2 | 8.0 | 0.00 | 0.00 | 0.00 | 67 | 1014.5 |
| 20260905175307 | 30 | 107 | 3.2 | 8.0 | 0.00 | 0.00 | 0.00 | 65 | 1014.3 |
| 20260905174807 | 30 | 93 | 1.6 | 6.4 | 0.00 | 0.00 | 0.00 | 66 | 1014.3 |
| 20260905174303 | 30 | 82 | 1.6 | 6.4 | 0.00 | 0.00 | 0.00 | 65 | 1014.3 |
| 20260905173802 | 31 | 123 | 1.6 | 6.4 | 0.00 | 0.00 | 0.00 | 65 | 1014.3 |
| 20260905173528 | 31 | 92 | 1.6 | 4.8 | 0.00 | 0.00 | 0.00 | 66 | 1014.3 |
| 20260905173023 | 30 | 137 | 1.6 | 4.8 | 0.00 | 0.00 | 0.00 | 66 | 1014.5 |
| 20260905172305 | 30 | 111 | 1.6 | 4.8 | 0.00 | 0.00 | 0.00 | 65 | 1014.5 |
| 20260905171803 | 30 | 101 | 1.6 | 4.8 | 0.00 | 0.00 | 0.00 | 66 | 1014.3 |
| 20260905171527 | 30 | 117 | 1.6 | 11.3 | 0.00 | 0.00 | 0.00 | 65 | 1014.5 |
| 20260905170803 | 30 | 130 | 1.6 | 11.3 | 0.00 | 0.00 | 0.00 | 65 | 1014.5 |
| 20260905170306 | 31 | 82 | 3.2 | 11.3 | 0.00 | 0.00 | 0.00 | 64 | 1014.5 |
| 20260905165756 | 31 | 179 | 3.2 | 11.3 | 0.00 | 0.00 | 0.00 | 65 | 1014.5 |
| 20260905165257 | 30 | 122 | 1.6 | 9.7 | 0.00 | 0.00 | 0.00 | 65 | 1014.5 |
| 20260905164756 | 30 | 136 | 3.2 | 9.7 | 0.00 | 0.00 | 0.00 | 65 | 1014.7 |
| 20260905164309 | 30 | 115 | 3.2 | 9.7 | 0.00 | 0.00 | 0.00 | 66 | 1014.7 |
| 20260905163756 | 30 | 173 | 3.2 | 9.7 | 0.00 | 0.00 | 0.00 | 67 | 1014.6 |
| 20260905163256 | 30 | 124 | 3.2 | 9.7 | 0.00 | 0.00 | 0.00 | 67 | 1014.8 |
| 20260905162805 | 30 | 136 | 3.2 | 8.0 | 0.00 | 0.00 | 0.00 | 67 | 1014.7 |
| 20260905162259 | 30 | 205 | 1.6 | 8.0 | 0.00 | 0.00 | 0.00 | 67 | 1014.7 |
| 20260905161756 | 29 | 113 | 1.6 | 4.8 | 0.00 | 0.00 | 0.00 | 68 | 1014.7 |
| 20260905161511 | 29 | 116 | 1.6 | 0.0 | 0.00 | 0.00 | 0.00 | 70 | 1014.7 |
| 20260905160859 | 29 | 93 | 1.6 | 6.4 | 0.00 | 0.00 | 0.00 | 69 | 1014.8 |
| 20260905160358 | 29 | 116 | 1.6 | 6.4 | 0.00 | 0.00 | 0.00 | 69 | 1014.8 |
| 20260905160125 | 29 | 96 | 1.6 | 4.8 | 0.00 | 0.00 | 0.00 | 69 | 1014.7 |
| 20260905155355 | 29 | 101 | 1.6 | 8.0 | 0.00 | 0.00 | 0.00 | 69 | 1014.7 |
| 20260905155115 | 29 | 124 | 1.6 | 8.0 | 0.00 | 0.00 | 0.00 | 69 | 1014.7 |
| 20260905154354 | 28 | 156 | 1.6 | 8.0 | 0.00 | 0.00 | 0.00 | 70 | 1014.6 |
| 20260905153853 | 28 | 97 | 3.2 | 8.0 | 0.00 | 0.00 | 0.00 | 70 | 1014.6 |
| 20260905153355 | 28 | 131 | 3.2 | 6.4 | 0.00 | 0.00 | 0.00 | 71 | 1014.5 |
| 20260905153117 | 28 | 128 | 1.6 | 6.4 | 0.00 | 0.00 | 0.00 | 72 | 1014.6 |
| 20260905152354 | 28 | 111 | 1.6 | 4.8 | 0.00 | 0.00 | 0.00 | 71 | 1014.6 |
| 20260905151855 | 27 | 119 | 3.2 | 4.8 | 0.00 | 0.00 | 0.00 | 73 | 1014.5 |
| 20260905151841 | 27 | 115 | 3.2 | 4.8 | 0.00 | 0.00 | 0.00 | 73 | 1014.5 |
| 20260905150853 | 27 | 117 | 1.6 | 6.4 | 0.00 | 0.00 | 0.00 | 73 | 1014.3 |
| 20260905150351 | 27 | 116 | 1.6 | 6.4 | 0.00 | 0.00 | 0.00 | 75 | 1014.3 |
| 20260905150119 | 27 | 127 | 1.6 | 6.4 | 0.00 | 0.00 | 0.00 | 76 | 1014.2 |
| 20260905145351 | 26 | 98 | 1.6 | 6.4 | 0.00 | 0.00 | 0.00 | 76 | 1014.1 |
| 20260905144849 | 26 | 172 | 1.6 | 6.4 | 0.00 | 0.00 | 0.00 | 77 | 1014.1 |
| 20260905144347 | 26 | 171 | 1.6 | 9.7 | 0.00 | 0.00 | 0.00 | 77 | 1014.0 |
| 20260905143846 | 26 | 114 | 1.6 | 9.7 | 0.00 | 0.00 | 0.00 | 79 | 1014.0 |
| 20260905143346 | 25 | 188 | 1.6 | 9.7 | 0.00 | 0.00 | 0.00 | 81 | 1014.0 |
| 20260905142849 | 25 | 127 | 1.6 | 9.7 | 0.00 | 0.00 | 0.00 | 81 | 1014.1 |
| 20260905142347 | 24 | 121 | 1.6 | 6.4 | 0.00 | 0.00 | 0.00 | 82 | 1014.1 |
| 20260905141842 | 24 | 117 | 3.2 | 4.8 | 0.00 | 0.00 | 0.00 | 82 | 1014.1 |
| 20260905141606 | 24 | 107 | 3.2 | 4.8 | 0.00 | 0.00 | 0.00 | 83 | 1014.0 |
| 20260905140842 | 24 | 133 | 1.6 | 4.8 | 0.00 | 0.00 | 0.00 | 82 | 1013.9 |
| 20260905140344 | 24 | 110 | 1.6 | 6.4 | 0.00 | 0.00 | 0.00 | 83 | 1013.9 |
| 20260905135834 | 24 | 141 | 3.2 | 12.9 | 0.00 | 0.00 | 0.00 | 83 | 1013.8 |
| 20260905135334 | 24 | 87 | 1.6 | 12.9 | 0.00 | 0.00 | 0.00 | 83 | 1013.7 |
| 20260905134832 | 25 | 96 | 3.2 | 12.9 | 0.00 | 0.00 | 0.00 | 83 | 1013.7 |
| 20260905134335 | 25 | 229 | 3.2 | 12.9 | 0.00 | 0.00 | 0.00 | 83 | 1013.7 |
| 20260905133832 | 25 | 178 | 3.2 | 11.3 | 0.00 | 0.00 | 0.00 | 82 | 1013.8 |
| 20260905133559 | 25 | 287 | 3.2 | 11.3 | 0.00 | 0.00 | 0.00 | 82 | 1013.7 |
| 20260905133058 | 25 | 162 | 3.2 | 6.4 | 0.00 | 0.00 | 0.00 | 82 | 1013.6 |
| 20260905132332 | 25 | 102 | 1.6 | 4.8 | 0.00 | 0.00 | 0.00 | 82 | 1013.8 |
| 20260905131834 | 25 | 101 | 1.6 | 4.8 | 0.00 | 0.00 | 0.00 | 82 | 1013.9 |
| 20260905131332 | 25 | 107 | 1.6 | 4.8 | 0.00 | 0.00 | 0.00 | 82 | 1014.0 |